Location: Unspecified
(54.1780°N, 0.0000°E)
Time: 17:49:33
(UTC+00:00)

Tiros 1 - Pass Details

Date: 26 June 2019
Orbit: 630 x 664 km, 48.4° (Epoch: 17 August)

Event Time Altitude Azimuth Distance (km) Brightness Sun altitude
Rises 22:09:35 0° 222° (SW) 2,955 10.3 -8.7°
Reaches altitude 10° 22:12:14 10° 210° (SSW) 2,041 9.4 -8.9°
Maximum altitude 22:16:03 25° 155° (SSE) 1,293 8.1 -9.1°
Drops below altitude 10° 22:19:52 10° 100° (E) 2,029 9.4 -9.4°
Sets 22:22:30 0° 88° (E) 2,935 10.3 -9.5°
